This is the latest recevied weather packets stored in our database for station/object WA6OOO. If no packets are shown the sender has not sent any weather packets the latest 10 day(s).
| Time | Temp. | Humidity | Pressure | Rain* | Wind** | Luminosity | Snow |
|---|---|---|---|---|---|---|---|
| 1788628420 | 25° C | 57% | 1018 hPa | 0 mm | - | 498 W/m² | - |
| 1788628116 | 25.56° C | 55% | 1018.2 hPa | 0 mm | - | 486 W/m² | - |
| 1788627812 | 25.56° C | 56% | 1018 hPa | 0 mm | - | 471 W/m² | - |
| 1788627511 | 25.56° C | 57% | 1018 hPa | 0 mm | - | 459 W/m² | - |
| 1788627207 | 25° C | 58% | 1018.1 hPa | 0 mm | - | 444 W/m² | - |
| 1788626906 | 25° C | 59% | 1018 hPa | 0 mm | - | 430 W/m² | - |
| 1788626601 | 24.44° C | 60% | 1018 hPa | 0 mm | - | 416 W/m² | - |
| 1788626297 | 23.89° C | 60% | 1017.9 hPa | 0 mm | - | 403 W/m² | - |
| 1788625994 | 23.89° C | 60% | 1017.9 hPa | 0 mm | - | 390 W/m² | - |
| 1788625689 | 22.78° C | 61% | 1017.8 hPa | 0 mm | - | 375 W/m² | - |
| 1788625388 | 22.78° C | 59% | 1018 hPa | 0 mm | - | 362 W/m² | - |
| 1788625084 | 23.33° C | 56% | 1018 hPa | 0 mm | - | 347 W/m² | - |
| 1788624782 | 22.78° C | 60% | 1017.8 hPa | 0 mm | - | 332 W/m² | - |
| 1788624481 | 22.78° C | 61% | 1017.7 hPa | 0 mm | - | 317 W/m² | - |
| 1788624175 | 22.22° C | 60% | 1017.6 hPa | 0 mm | - | 302 W/m² | - |
| 1788623870 | 22.22° C | 61% | 1017.7 hPa | 0 mm | - | 287 W/m² | - |
| 1788623568 | 22.22° C | 61% | 1017.8 hPa | 0 mm | - | 275 W/m² | - |
| 1788623263 | 22.22° C | 60% | 1017.8 hPa | 0 mm | - | 259 W/m² | - |
| 1788622959 | 22.22° C | 61% | 1017.7 hPa | 0 mm | - | 244 W/m² | - |
| 1788622654 | 21.67° C | 62% | 1017.7 hPa | 0 mm | - | 229 W/m² | - |
| 1788622350 | 22.22° C | 61% | 1017.8 hPa | 0 mm | - | 83 W/m² | - |
| 1788622044 | 21.67° C | 62% | 1017.8 hPa | 0 mm | - | 199 W/m² | - |
| 1788621739 | 22.22° C | 63% | 1017.5 hPa | 0 mm | - | 50 W/m² | - |
| 1788621439 | 22.22° C | 64% | 1017.6 hPa | 0 mm | - | 47 W/m² | - |
| 1788621135 | 22.22° C | 63% | 1017.5 hPa | 0 mm | - | 36 W/m² | - |
* Rain latest hour (hover to see other rain measurements)
** Current wind speed in m/s (hover to see current wind gust speed)